Time,TemperatureF,DewpointF,PressureIn,WindDirection,WindDirectionDegrees,WindSpeedMPH,WindSpeedGustMPH,Humidity,HourlyPrecipIn,Conditions,Clouds,dailyrainin,SoftwareType,DateUTC
2013-02-06 00:01:00,61.0,48.0,30.00,ESE,108,8.0,12.0,63,0.00,,,-99.99,,2013-02-06 06:01:00,
2013-02-06 00:11:00,61.0,48.0,30.00,ESE,108,8.0,12.0,63,0.00,,,-99.99,,2013-02-06 06:11:00,
2013-02-06 00:21:00,60.0,48.0,30.00,East,88,5.0,7.0,65,0.00,,,-99.99,,2013-02-06 06:21:00,
2013-02-06 00:32:00,60.0,49.0,29.99,East,97,6.0,8.0,66,0.00,,,-99.99,,2013-02-06 06:32:00,
2013-02-06 00:42:00,60.0,49.0,29.99,East,97,6.0,8.0,66,0.00,,,-99.99,,2013-02-06 06:42:00,
2013-02-06 00:51:00,60.0,49.0,29.98,East,95,8.0,8.0,66,0.00,,,-99.99,,2013-02-06 06:51:00,
2013-02-06 01:01:00,59.0,48.0,29.98,East,93,6.0,9.0,66,0.00,,,-99.99,,2013-02-06 07:01:00,
2013-02-06 01:11:00,59.0,48.0,29.98,East,93,6.0,9.0,66,0.00,,,-99.99,,2013-02-06 07:11:00,
2013-02-06 01:21:00,59.0,48.0,29.98,East,93,6.0,9.0,66,0.00,,,-99.99,,2013-02-06 07:21:00,
2013-02-06 01:32:00,59.0,48.0,29.99,SE,132,2.0,8.0,68,0.00,,,-99.99,,2013-02-06 07:32:00,
2013-02-06 01:41:00,59.0,48.0,29.99,SE,132,2.0,8.0,68,0.00,,,-99.99,,2013-02-06 07:41:00,
2013-02-06 01:52:00,58.0,48.0,29.99,ESE,108,2.0,5.0,69,0.00,,,-99.99,,2013-02-06 07:52:00,
2013-02-06 02:01:00,58.0,48.0,29.99,East,87,4.0,5.0,69,0.00,,,-99.99,,2013-02-06 08:01:00,
2013-02-06 02:11:00,58.0,48.0,29.99,East,87,4.0,5.0,69,0.00,,,-99.99,,2013-02-06 08:11:00,
2013-02-06 02:21:00,58.0,47.0,29.99,ESE,104,5.0,6.0,68,0.00,,,-99.99,,2013-02-06 08:21:00,
2013-02-06 02:31:00,58.0,47.0,29.99,East,101,3.0,7.0,68,0.00,,,-99.99,,2013-02-06 08:31:00,
2013-02-06 02:41:00,58.0,47.0,29.99,East,101,3.0,7.0,68,0.00,,,-99.99,,2013-02-06 08:41:00,
2013-02-06 02:53:00,58.0,47.0,29.99,ESE,106,3.0,6.0,67,0.00,,,-99.99,,2013-02-06 08:53:00,
2013-02-06 03:01:00,58.0,47.0,29.99,East,84,2.0,4.0,67,0.00,,,-99.99,,2013-02-06 09:01:00,
2013-02-06 03:11:00,58.0,47.0,29.99,East,84,2.0,4.0,67,0.00,,,-99.99,,2013-02-06 09:11:00,
2013-02-06 03:21:00,58.0,47.0,29.99,East,84,2.0,4.0,67,0.00,,,-99.99,,2013-02-06 09:21:00,
2013-02-06 03:31:00,58.0,47.0,29.99,East,84,2.0,4.0,67,0.00,,,-99.99,,2013-02-06 09:31:00,
2013-02-06 03:41:00,58.0,47.0,29.99,East,84,2.0,4.0,67,0.00,,,-99.99,,2013-02-06 09:41:00,
2013-02-06 03:52:00,57.0,47.0,29.99,ESE,118,2.0,4.0,69,0.00,,,-99.99,,2013-02-06 09:52:00,
2013-02-06 04:01:00,57.0,47.0,29.99,ESE,110,2.0,3.0,69,0.00,,,-99.99,,2013-02-06 10:01:00,
2013-02-06 04:11:00,57.0,47.0,29.99,ESE,110,2.0,3.0,69,0.00,,,-99.99,,2013-02-06 10:11:00,
2013-02-06 04:21:00,57.0,47.0,29.99,ESE,110,2.0,3.0,69,0.00,,,-99.99,,2013-02-06 10:21:00,
2013-02-06 04:31:00,58.0,47.0,29.99,East,84,4.0,6.0,68,0.00,,,-99.99,,2013-02-06 10:31:00,
2013-02-06 04:41:00,58.0,47.0,29.99,East,84,4.0,6.0,68,0.00,,,-99.99,,2013-02-06 10:41:00,
2013-02-06 04:51:00,58.0,47.0,29.99,East,84,4.0,6.0,68,0.00,,,-99.99,,2013-02-06 10:51:00,
2013-02-06 05:01:00,58.0,48.0,29.99,East,94,3.0,6.0,69,0.00,,,-99.99,,2013-02-06 11:01:00,
2013-02-06 05:11:00,58.0,48.0,29.99,East,94,3.0,6.0,69,0.00,,,-99.99,,2013-02-06 11:11:00,
2013-02-06 05:22:00,58.0,48.0,29.99,East,82,5.0,6.0,69,0.00,,,-99.99,,2013-02-06 11:22:00,
2013-02-06 05:32:00,58.0,48.0,30.01,ESE,116,2.0,5.0,70,0.00,,,-99.99,,2013-02-06 11:32:00,
2013-02-06 05:42:00,58.0,48.0,30.01,ESE,116,2.0,5.0,70,0.00,,,-99.99,,2013-02-06 11:42:00,
2013-02-06 05:52:00,57.0,48.0,30.00,ESE,105,1.0,3.0,71,0.00,,,-99.99,,2013-02-06 11:52:00,
2013-02-06 06:02:00,57.0,48.0,30.01,ESE,104,1.0,4.0,71,0.00,,,-99.99,,2013-02-06 12:02:00,
2013-02-06 06:12:00,57.0,48.0,30.01,ESE,104,1.0,4.0,71,0.00,,,-99.99,,2013-02-06 12:12:00,
2013-02-06 06:22:00,57.0,48.0,30.00,ESE,121,1.0,4.0,73,0.00,,,-99.99,,2013-02-06 12:22:00,
2013-02-06 06:32:00,56.0,48.0,30.00,ESE,118,0.0,2.0,74,0.00,,,-99.99,,2013-02-06 12:32:00,
2013-02-06 06:42:00,56.0,48.0,30.00,ESE,118,0.0,2.0,74,0.00,,,-99.99,,2013-02-06 12:42:00,
2013-02-06 06:52:00,56.0,48.0,30.00,East,94,1.0,1.0,74,0.00,,,-99.99,,2013-02-06 12:52:00,
2013-02-06 07:01:00,56.0,48.0,30.00,East,94,1.0,1.0,74,0.00,,,-99.99,,2013-02-06 13:01:00,
2013-02-06 07:11:00,56.0,48.0,30.00,East,94,1.0,1.0,74,0.00,,,-99.99,,2013-02-06 13:11:00,
2013-02-06 07:22:00,55.0,48.0,30.01,ESE,122,0.0,2.0,76,0.00,,,-99.99,,2013-02-06 13:22:00,
2013-02-06 07:31:00,55.0,48.0,30.00,East,84,2.0,2.0,78,0.00,,,-99.99,,2013-02-06 13:31:00,
2013-02-06 07:42:00,55.0,48.0,30.00,East,84,2.0,2.0,78,0.00,,,-99.99,,2013-02-06 13:42:00,
2013-02-06 07:52:00,55.0,48.0,30.01,East,101,1.0,3.0,78,0.00,,,-99.99,,2013-02-06 13:52:00,
2013-02-06 08:01:00,55.0,48.0,30.01,East,101,1.0,3.0,78,0.00,,,-99.99,,2013-02-06 14:01:00,
2013-02-06 08:11:00,56.0,50.0,30.01,East,92,2.0,3.0,80,0.00,,,-99.99,,2013-02-06 14:11:00,
2013-02-06 08:21:00,56.0,50.0,30.01,East,92,2.0,3.0,80,0.00,,,-99.99,,2013-02-06 14:21:00,
2013-02-06 08:32:00,56.0,50.0,30.01,East,84,2.0,3.0,81,0.00,,,-99.99,,2013-02-06 14:32:00,
2013-02-06 08:42:00,56.0,50.0,30.01,East,84,2.0,3.0,81,0.00,,,-99.99,,2013-02-06 14:42:00,
2013-02-06 08:52:00,56.0,50.0,30.01,East,84,2.0,3.0,81,0.00,,,-99.99,,2013-02-06 14:52:00,
2013-02-06 09:01:00,58.0,51.0,30.01,East,86,3.0,7.0,77,0.00,,,-99.99,,2013-02-06 15:01:00,
2013-02-06 09:11:00,60.0,52.0,30.01,SE,126,3.0,6.0,76,0.00,,,-99.99,,2013-02-06 15:11:00,
2013-02-06 09:21:00,60.0,52.0,30.01,SE,126,3.0,6.0,76,0.00,,,-99.99,,2013-02-06 15:21:00,
2013-02-06 09:31:00,60.0,52.0,30.01,SE,126,3.0,6.0,76,0.00,,,-99.99,,2013-02-06 15:31:00,
2013-02-06 09:41:00,60.0,52.0,30.01,SE,126,3.0,6.0,76,0.00,,,-99.99,,2013-02-06 15:41:00,
2013-02-06 09:52:00,60.0,52.0,30.01,SE,126,3.0,6.0,76,0.00,,,-99.99,,2013-02-06 15:52:00,
2013-02-06 10:01:00,62.0,54.0,30.01,ESE,113,4.0,9.0,74,0.00,,,-99.99,,2013-02-06 16:01:00,
2013-02-06 10:11:00,62.0,54.0,30.01,ESE,113,4.0,9.0,74,0.00,,,-99.99,,2013-02-06 16:11:00,
2013-02-06 10:21:00,62.0,54.0,30.01,ESE,113,4.0,9.0,74,0.00,,,-99.99,,2013-02-06 16:21:00,
2013-02-06 10:32:00,63.0,54.0,30.01,East,101,6.0,11.0,72,0.00,,,-99.99,,2013-02-06 16:32:00,
2013-02-06 10:42:00,63.0,54.0,30.01,East,101,6.0,11.0,72,0.00,,,-99.99,,2013-02-06 16:42:00,
2013-02-06 10:52:00,64.0,54.0,30.01,SSE,152,8.0,11.0,70,0.00,,,-99.99,,2013-02-06 16:52:00,
2013-02-06 11:02:00,65.0,55.0,30.00,SSE,158,4.0,13.0,70,0.00,,,-99.99,,2013-02-06 17:02:00,
2013-02-06 11:11:00,66.0,55.0,29.99,SE,141,4.0,10.0,68,0.00,,,-99.99,,2013-02-06 17:11:00,
2013-02-06 11:21:00,66.0,55.0,29.99,SE,141,4.0,10.0,68,0.00,,,-99.99,,2013-02-06 17:21:00,
2013-02-06 11:32:00,66.0,55.0,29.98,SSE,158,4.0,10.0,67,0.00,,,-99.99,,2013-02-06 17:32:00,
2013-02-06 11:41:00,67.0,54.0,29.98,ESE,118,6.0,12.0,64,0.00,,,-99.99,,2013-02-06 17:41:00,
2013-02-06 11:52:00,67.0,54.0,29.98,ESE,118,6.0,12.0,64,0.00,,,-99.99,,2013-02-06 17:52:00,
2013-02-06 12:01:00,69.0,55.0,29.96,SE,139,6.0,10.0,61,0.00,,,-99.99,,2013-02-06 18:01:00,
2013-02-06 12:11:00,70.0,55.0,29.96,SE,143,8.0,10.0,59,0.00,,,-99.99,,2013-02-06 18:11:00,
2013-02-06 12:23:00,70.0,55.0,29.96,SE,143,8.0,10.0,59,0.00,,,-99.99,,2013-02-06 18:23:00,
2013-02-06 12:32:00,70.0,55.0,29.95,SE,142,5.0,11.0,58,0.00,,,-99.99,,2013-02-06 18:32:00,
2013-02-06 12:42:00,70.0,55.0,29.95,SE,142,5.0,11.0,58,0.00,,,-99.99,,2013-02-06 18:42:00,
2013-02-06 12:52:00,71.0,55.0,29.94,SE,143,4.0,14.0,57,0.00,,,-99.99,,2013-02-06 18:52:00,
2013-02-06 13:01:00,72.0,55.0,29.92,ESE,123,3.0,10.0,56,0.00,,,-99.99,,2013-02-06 19:01:00,
2013-02-06 13:11:00,72.0,55.0,29.92,ESE,123,3.0,10.0,56,0.00,,,-99.99,,2013-02-06 19:11:00,
2013-02-06 13:21:00,72.0,54.0,29.91,ESE,110,6.0,12.0,54,0.00,,,-99.99,,2013-02-06 19:21:00,
2013-02-06 13:31:00,73.0,55.0,29.90,SW,225,3.0,8.0,53,0.00,,,-99.99,,2013-02-06 19:31:00,
2013-02-06 13:41:00,73.0,55.0,29.90,SW,225,3.0,8.0,53,0.00,,,-99.99,,2013-02-06 19:41:00,
2013-02-06 13:52:00,74.0,55.0,29.88,West,280,5.0,11.0,51,0.00,,,-99.99,,2013-02-06 19:52:00,
2013-02-06 14:01:00,74.0,55.0,29.87,SE,146,4.0,11.0,52,0.00,,,-99.99,,2013-02-06 20:01:00,
2013-02-06 14:11:00,74.0,55.0,29.87,SE,146,4.0,11.0,52,0.00,,,-99.99,,2013-02-06 20:11:00,
2013-02-06 14:21:00,74.0,55.0,29.87,SE,146,4.0,11.0,52,0.00,,,-99.99,,2013-02-06 20:21:00,
2013-02-06 14:31:00,66.0,57.0,29.87,SSW,203,2.0,10.0,73,0.14,,,-99.99,,2013-02-06 20:31:00,
2013-02-06 14:52:00,66.0,57.0,29.87,SSW,203,2.0,10.0,73,0.14,,,-99.99,,2013-02-06 20:52:00,
2013-02-06 15:01:00,65.0,58.0,29.85,East,88,6.0,6.0,77,0.00,,,-99.99,,2013-02-06 21:01:00,
2013-02-06 15:21:00,65.0,58.0,29.85,East,84,7.0,9.0,79,0.00,,,-99.99,,2013-02-06 21:21:00,
2013-02-06 15:51:00,65.0,57.0,29.84,East,88,7.0,12.0,75,0.00,,,-99.99,,2013-02-06 21:51:00,
2013-02-06 16:01:00,66.0,58.0,29.83,East,90,4.0,13.0,75,0.00,,,-99.99,,2013-02-06 22:01:00,
2013-02-06 16:21:00,65.0,58.0,29.83,East,85,9.0,9.0,79,0.00,,,-99.99,,2013-02-06 22:21:00,
2013-02-06 16:52:00,67.0,60.0,29.82,ESE,119,7.0,13.0,77,0.00,,,-99.99,,2013-02-06 22:52:00,
2013-02-06 17:01:00,66.0,58.0,29.82,East,94,14.0,15.0,75,0.00,,,-99.99,,2013-02-06 23:01:00,
2013-02-06 17:11:00,66.0,58.0,29.82,East,94,14.0,15.0,75,0.00,,,-99.99,,2013-02-06 23:11:00,
2013-02-06 17:21:00,65.0,56.0,29.83,ESE,114,8.0,15.0,74,0.00,,,-99.99,,2013-02-06 23:21:00,
2013-02-06 17:31:00,66.0,56.0,29.82,ESE,120,5.0,12.0,70,0.00,,,-99.99,,2013-02-06 23:31:00,
2013-02-06 17:41:00,66.0,56.0,29.82,ESE,120,5.0,12.0,70,0.00,,,-99.99,,2013-02-06 23:41:00,
2013-02-06 17:52:00,65.0,57.0,29.83,East,82,7.0,10.0,75,0.00,,,-99.99,,2013-02-06 23:52:00,
2013-02-06 18:01:00,64.0,56.0,29.83,ESE,114,4.0,9.0,76,0.00,,,-99.99,,2013-02-07 00:01:00,
2013-02-06 18:11:00,64.0,56.0,29.83,ESE,114,4.0,9.0,76,0.00,,,-99.99,,2013-02-07 00:11:00,
2013-02-06 18:21:00,63.0,55.0,29.83,East,98,11.0,12.0,76,0.00,,,-99.99,,2013-02-07 00:21:00,
2013-02-06 18:31:00,63.0,55.0,29.84,East,96,9.0,16.0,76,0.00,,,-99.99,,2013-02-07 00:31:00,
2013-02-06 18:41:00,63.0,55.0,29.84,East,96,9.0,16.0,76,0.00,,,-99.99,,2013-02-07 00:41:00,
2013-02-06 18:52:00,62.0,54.0,29.85,ESE,108,10.0,12.0,76,0.00,,,-99.99,,2013-02-07 00:52:00,
2013-02-06 19:01:00,62.0,55.0,29.85,SE,125,6.0,13.0,77,0.00,,,-99.99,,2013-02-07 01:01:00,
2013-02-06 19:11:00,62.0,55.0,29.85,SE,125,6.0,13.0,77,0.00,,,-99.99,,2013-02-07 01:11:00,
2013-02-06 19:21:00,62.0,55.0,29.86,East,98,5.0,15.0,77,0.00,,,-99.99,,2013-02-07 01:21:00,
2013-02-06 19:31:00,62.0,55.0,29.87,SSE,148,4.0,11.0,78,0.00,,,-99.99,,2013-02-07 01:31:00,
2013-02-06 19:41:00,62.0,55.0,29.87,SSE,148,4.0,11.0,78,0.00,,,-99.99,,2013-02-07 01:41:00,
2013-02-06 19:52:00,62.0,55.0,29.87,SSE,148,4.0,11.0,78,0.00,,,-99.99,,2013-02-07 01:52:00,
2013-02-06 20:01:00,62.0,55.0,29.88,SE,142,5.0,10.0,79,0.00,,,-99.99,,2013-02-07 02:01:00,
2013-02-06 20:11:00,62.0,55.0,29.88,SE,142,5.0,10.0,79,0.00,,,-99.99,,2013-02-07 02:11:00,
2013-02-06 20:21:00,61.0,55.0,29.88,SSE,155,2.0,5.0,81,0.00,,,-99.99,,2013-02-07 02:21:00,
2013-02-06 20:31:00,61.0,55.0,29.89,SE,137,1.0,4.0,81,0.00,,,-99.99,,2013-02-07 02:31:00,
2013-02-06 20:41:00,61.0,55.0,29.89,SE,137,1.0,4.0,81,0.00,,,-99.99,,2013-02-07 02:41:00,
2013-02-06 20:51:00,61.0,55.0,29.89,SE,137,1.0,4.0,81,0.00,,,-99.99,,2013-02-07 02:51:00,
2013-02-06 21:02:00,60.0,54.0,29.90,SE,135,1.0,2.0,82,0.00,,,-99.99,,2013-02-07 03:02:00,
2013-02-06 21:11:00,60.0,55.0,29.91,ESE,110,2.0,3.0,83,0.00,,,-99.99,,2013-02-07 03:11:00,
2013-02-06 21:21:00,60.0,55.0,29.91,ESE,110,2.0,3.0,83,0.00,,,-99.99,,2013-02-07 03:21:00,
2013-02-06 21:31:00,61.0,55.0,29.91,ESE,109,3.0,4.0,82,0.00,,,-99.99,,2013-02-07 03:31:00,
2013-02-06 21:41:00,61.0,55.0,29.91,ESE,109,3.0,4.0,82,0.00,,,-99.99,,2013-02-07 03:41:00,
2013-02-06 21:52:00,60.0,54.0,29.91,ESE,106,3.0,4.0,82,0.00,,,-99.99,,2013-02-07 03:52:00,
2013-02-06 22:01:00,60.0,55.0,29.92,East,86,4.0,6.0,83,0.00,,,-99.99,,2013-02-07 04:01:00,
2013-02-06 22:11:00,60.0,55.0,29.92,East,86,4.0,6.0,83,0.00,,,-99.99,,2013-02-07 04:11:00,
2013-02-06 22:22:00,59.0,54.0,29.92,East,98,7.0,8.0,85,0.00,,,-99.99,,2013-02-07 04:22:00,
2013-02-06 22:31:00,59.0,55.0,29.92,ESE,121,4.0,9.0,86,0.00,,,-99.99,,2013-02-07 04:31:00,
2013-02-06 22:41:00,59.0,55.0,29.92,ESE,121,4.0,9.0,86,0.00,,,-99.99,,2013-02-07 04:41:00,
2013-02-06 22:52:00,58.0,54.0,29.93,East,101,6.0,8.0,88,0.00,,,-99.99,,2013-02-07 04:52:00,
2013-02-06 23:02:00,58.0,55.0,29.93,East,92,4.0,7.0,89,0.00,,,-99.99,,2013-02-07 05:02:00,
2013-02-06 23:11:00,58.0,55.0,29.93,East,92,4.0,7.0,89,0.00,,,-99.99,,2013-02-07 05:11:00,
2013-02-06 23:21:00,58.0,55.0,29.93,East,92,4.0,7.0,89,0.00,,,-99.99,,2013-02-07 05:21:00,
2013-02-06 23:32:00,58.0,55.0,29.93,East,92,4.0,7.0,89,0.00,,,-99.99,,2013-02-07 05:32:00,
2013-02-06 23:42:00,58.0,55.0,29.93,East,92,4.0,7.0,89,0.00,,,-99.99,,2013-02-07 05:42:00,
2013-02-06 23:52:00,58.0,55.0,29.93,East,94,5.0,9.0,89,0.00,,,-99.99,,2013-02-07 05:52:00,